Airport Information

KYKM - Yakima Air Terminal McAllister Field Airport

KYKM 100853Z AUTO 00000KT 2SM BR OVC003 01/M01 A3028 RMK AO2 SFC VIS 6 SLP264 T00111006 58001


  • General Information

  • Coordinates: N 46°34'5"/ W 120°32'38"
  • Location: N/A
  • Surveyed Elevation: 1095 MSL

Operations

Flow Name Active Runways Conditions

Green background denotes normal operations.


Common Frequencies

Callsign Frequency Position Name

More at the Document Center


Charts